Location: Dalton
(34.7700°N, 84.9700°W)
Time: 02:00:31
(UTC-04:00)

Vanguard 2 - Visible Passes

Search period start: 17 October 2017 00:00
Search period end: 27 October 2017 00:00
Orbit: 554 x 2939 km, 32.9° (Epoch: 16 October)

Date Brightness Start Highest point End Pass type
(mag) Time Alt. Az. Time Alt. Az. Time Alt. Az.
18 Oct 12.1 06:10:35 10° SSE 06:15:34 12° SE 06:20:13 10° SE visible
19 Oct 12.0 06:23:50 10° S 06:33:50 18° SE 06:42:27 10° ESE visible
20 Oct 11.7 06:39:19 10° SSW 06:52:02 25° SE 07:02:30 10° E visible
21 Oct 11.5 06:55:43 10° SSW 07:10:13 33° SSE 07:21:45 10° E visible
22 Oct 11.9 05:08:09 10° S 05:17:08 16° SE 05:25:34 10° ESE visible
22 Oct 11.2 07:12:40 10° SSW 07:28:25 41° SSE 07:40:33 10° E visible
23 Oct 11.7 05:23:02 10° S 05:35:12 23° SE 05:46:19 10° E visible
24 Oct 11.5 05:39:05 10° SSW 05:53:14 30° SE 06:05:56 10° E visible
25 Oct 11.9 03:54:20 10° SSE 04:00:23 13° SE 04:06:28 10° ESE visible
25 Oct 11.2 05:55:47 10° SSW 06:11:18 38° SE 06:24:59 10° E visible
26 Oct 11.7 04:07:53 10° S 04:18:17 19° SE 04:28:45 10° E visible
26 Oct 11.0 06:12:55 10° SW 06:29:24 47° SSE 06:43:41 10° E visible
